CAPE
45 21 0 0 0 0 0 0 0 0 0 0 0 0 0 0 0 0 0 0 0 0 0 0 0 0 0 0 0 0 0 0 0 0 0 0 0 0 0 0 0 0 0
0 0 0 0 0 0 0 0 0 0 0 0 0 0 0 0 0 0 0 0 0 0 0 0 0 0 0 0 0 0 0 0 0 0 0 0 0 0 0 0 0 0 0
0 1 2 1 1 1 1 0 0 0 0 0 0 0 0 0 0 0 0 0 0 0 0 0 0 0 0 0 0 0 0 0 0 0 0 0 0 0 0 0 0 0 0
2 0 0 1 0 0 0 0 0 0 0 0 0 0 1 1 1 1 1 0 0 0 0 0 0 0 0 0 0 0 0 0 0 0 0 0 0 0 0 0 0 0 0
0 1 1 1 1 1 0 0 0 0 0 0 0 0 0 0 1 0 0 0 0 0 0 0 0 0 0 0 0 0 0 0 0 0 0 0 0 0 0 0 0 0 0
0 0 0 0 0 0 0 0 0 0 0 0 0 0 0 0 6 5 0 0 0 0 0 0 0 0 0 0 0 0 0 0 0 0 0 0 0 0 0 0 0 0 0
0 0 0 0 0 0 0 0 0 0 0 0 0 0 0 0 15 14 7 1 1 1 1 0 0 0 0 0 0 0 0 0 0 0 0 0 0 0 0 0 0 0 0
0 0 0 0 0 0 0 0 0 0 0 1 0 0 0 1 9 5 1 0 0 0 0 0 0 0 0 0 1 3 2 1 0 0 0 0 0 0 0 0 0 0 0
0 0 0 0 0 0 0 0 0 0 1 1 0 0 4 0 2 2 0 0 0 0 0 0 0 0 2 2 0 1 3 5 5 10 14 29 39 41 32 15 12 5 3
1 0 0 1 1 0 0 1 0 0 3 2 1 1 0 0 3 3 0 1 0 0 0 0 0 0 0 1 0 0 0 0 3 1 6 8 13 12 41 33 27 21 9
0 0 0 0 0 0 0 0 0 0 0 0 0 0 0 0 0 5 5 0 1 0 1 0 0 0 0 1 1 0 0 0 0 0 1 3 8 7 2 2 6 14 20
0 0 0 0 0 0 0 0 0 0 0 0 0 0 0 0 1 2 3 3 1 1 1 0 0 0 0 0 0 3 3 0 0 0 0 0 0 2 6 5 0 0 10
0 0 0 0 0 0 0 0 0 0 0 0 0 0 0 0 0 2 4 4 1 1 2 0 0 0 0 0 1 2 1 0 0 0 0 1 5 0 0 0 0 0 0
0 0 0 0 0 0 0 0 0 0 0 0 0 0 0 0 0 0 0 0 1 0 0 0 0 0 0 0 0 0 0 1 3 1 5 4 0 0 0 0 2 4 2
0 0 0 0 0 0 0 0 0 0 0 0 0 0 0 0 1 3 2 0 0 1 0 0 0 0 0 0 0 0 0 0 0 0 0 0 2 2 0 0 0 3 0
0 0 0 0 0 0 0 0 0 0 0 1 1 1 0 7 7 6 7 5 3 4 0 0 0 0 0 0 0 0 0 0 0 0 0 0 0 0 0 0 0 0 0
0 0 0 0 0 0 0 0 0 0 0 0 0 0 5 9 4 4 8 2 1 0 0 0 0 0 0 0 0 0 0 0 0 0 0 0 0 0 0 0 3 0 0
0 0 0 0 0 0 0 0 0 0 0 0 0 0 1 7 2 1 3 0 0 0 0 0 0 0 0 0 0 0 0 0 0 0 0 0 0 0 0 0 0 0 0
0 0 0 0 0 0 0 0 0 0 0 0 0 0 0 2 0 0 0 0 0 0 0 0 0 0 0 0 0 0 0 0 0 0 0 0 0 0 0 0 0 0 0
0 0 0 0 0 0 0 0 0 0 0 0 0 0 0 0 0 0 0 0 0 0 0 0 0 0 0 0 0 0 0 0 0 0 0 0 0 0 0 0 0 0 0
0 0 0 0 0 0 0 0 0 0 0 0 0 0 6 0 0 0 0 0 0 0 0 0 0 0 0 0 0 0 0 0 0 0 0 0 0 0 0 0 0 0 0
0 0 0 0 0 0 0 0 0 0 0 0 0 0 2 0 0 0 0 0 0 0 0 0 0 0 0 0 0 0 0 0 0 0 0 0 0 0 0 0 0 0 0
0 0 0 0 0 0 0 0 0 0 0 0 0 0 0 0 0 0 0 0 0 0 0 0 0 0 0 0 0 0 0 0 0 0 0 0 0 0 0 0 0 0 0
0 0 0 0 0 0 0 0 0 0 0 0 0 0 0 0 0 0 0 0 0 0 0 0 0 0 0 0 0 0 0 0 0 0 0 0 0 0 0 0 0 0 0
0 0 0 0 0 0 0 0 0 0 0 0 0 0 0 0 0 0 0 0 0 0 0 0 0 0 0 0 0 0 0 0 0 0 0 0 0 0 0 0 0 0 0
0 0 0 0 0 0 0 0 0 0 0 0 0 0 0 0 0 0 0 0 0 0 0 0 0 0 0 0 0 3 0 11 0 0 0 0 0 0 0 0 0 0 0
CIN
-100 -54 -0 -0 -0 -0 -0 -0 -0 -0 -0 -0 -0 -0 -0 -0 -0 -0 -0 -0 -0 -0 -0 -0 -0 -0 -0 -0 -0 -0 -0 -0 -0 -0 -0 -0 -0 -0 -0 -0 -0 -0 -0
-0 -0 -0 -0 -0 -0 -0 -0 -0 -0 -0 -0 -0 -0 -0 -0 -0 -0 -0 -0 -0 -0 -0 -0 -0 -0 -0 -0 -0 -0 -0 -0 -0 -0 -0 -0 -0 -0 -0 -0 -0 -0 -0
-0 -0 -0 -0 -0 -0 -0 -0 -0 -0 -0 -0 -0 -0 -0 -0 -0 -0 -0 -0 -0 -0 -0 -0 -0 -0 -0 -0 -0 -0 -0 -0 -0 -0 -0 -0 -0 -0 -0 -0 -0 -0 -0
-0 -0 -0 -0 -0 -0 -0 -0 -0 -0 -0 -0 -0 -0 -0 -0 -0 -0 -0 -0 -0 -0 -0 -0 -0 -0 -0 -0 -0 -0 -0 -0 -0 -0 -0 -0 -0 -0 -0 -0 -0 -0 -0
-0 -0 -0 -0 -0 -0 -0 -0 -0 -0 -0 -0 -0 -0 -0 -0 -0 -0 -0 -0 -0 -0 -0 -0 -0 -0 -0 -0 -0 -0 -0 -0 -0 -0 -0 -0 -0 -0 -0 -0 -0 -0 -0
-0 -0 -0 -0 -0 -0 -0 -0 -0 -0 -0 -0 -0 -0 -0 -0 -0 -0 -0 -0 -0 -0 -0 -0 -0 -0 -0 -0 -0 -0 -0 -0 -0 -0 -0 -0 -0 -0 -0 -0 -0 -0 -0
-0 -0 -0 -0 -0 -0 -0 -0 -0 -0 -0 -0 -0 -0 -0 -0 -0 -0 -0 -0 -0 -0 -0 -0 -0 -0 -0 -0 -0 -0 -0 -0 -0 -0 -0 -0 -0 -0 -0 -0 -0 -0 -0
-0 -0 -0 -0 -0 -0 -0 -0 -0 -0 -0 -0 -0 -0 -0 -0 -0 -0 -0 -0 -0 -0 -0 -0 -0 -0 -0 -1 -0 -0 -1 -2 -0 -0 -0 -0 -0 -0 -0 -0 -0 -0 -0
-0 -0 -0 -0 -0 -0 -0 -0 -0 -0 -0 -0 -0 -0 -0 -0 -0 -0 -0 -0 -0 -0 -0 -0 -0 -0 -0 -0 -0 -0 -0 -0 -0 -0 -0 -0 -0 -0 -0 -1 -1 -1 -1
-0 -0 -0 -0 -0 -0 -0 -0 -0 -0 -0 -0 -0 -0 -0 -0 -0 -0 -0 -0 -0 -0 -0 -0 -0 -0 -0 -0 -0 -0 -1 -1 -0 -0 -1 -0 -0 -2 -0 -1 -1 -0 -1
-0 -0 -0 -0 -0 -0 -0 -0 -0 -0 -0 -0 -0 -0 -0 -0 -0 -0 -0 -0 -0 -0 -0 -0 -0 -0 -0 -0 -0 -0 -0 -0 -0 -0 -0 -0 -0 -1 -7 -2 -7 -8 -1
-0 -0 -0 -0 -0 -0 -0 -0 -0 -0 -0 -0 -0 -0 -0 -0 -0 -0 -0 -0 -0 -0 -0 -0 -0 -0 -0 -0 -0 -0 -0 -0 -0 -0 -0 -0 -0 -0 -0 -0 -0 -0 -6
-0 -0 -0 -0 -0 -0 -0 -0 -0 -0 -0 -0 -0 -0 -0 -0 -0 -0 -0 -0 -0 -0 -0 -0 -0 -0 -0 -0 -0 -0 -0 -0 -0 -0 -0 -0 -1 -0 -0 -0 -0 -0 -0
-0 -0 -0 -0 -0 -0 -0 -0 -0 -0 -0 -0 -0 -0 -0 -0 -0 -0 -0 -0 -0 -0 -0 -0 -0 -0 -0 -0 -0 -0 -0 -0 -0 -0 -0 -0 -0 -0 -0 -0 -0 -0 -0
-0 -0 -0 -0 -0 -0 -0 -0 -0 -0 -0 -0 -0 -0 -0 -0 -0 -0 -1 -0 -0 -0 -0 -0 -0 -0 -0 -0 -0 -0 -0 -0 -0 -1 -0 -1 -0 -0 -0 -0 -0 -0 -0
-0 -0 -0 -0 -0 -0 -0 -0 -0 -0 -0 -0 -0 -0 -0 -0 -0 -0 -0 -0 -0 -0 -0 -0 -0 -0 -0 -0 -0 -0 -0 -0 -0 -0 -0 -0 -0 -0 -0 -0 -0 -0 -0
-0 -0 -0 -0 -0 -0 -0 -0 -0 -0 -0 -0 -0 -0 -0 -0 -0 -0 -0 -0 -0 -0 -0 -0 -0 -0 -0 -0 -0 -0 -0 -0 -0 -0 -0 -0 -0 -0 -0 -0 -0 -0 -0
-0 -0 -0 -0 -0 -0 -0 -0 -0 -0 -0 -0 -0 -0 -0 -0 -0 -0 -0 -0 -0 -0 -0 -0 -0 -0 -0 -0 -0 -0 -0 -0 -0 -0 -0 -0 -0 -0 -0 -0 -3 -1 -0
-0 -0 -0 -0 -0 -0 -0 -0 -0 -0 -0 -0 -0 -0 -0 -0 -0 -0 -0 -0 -0 -0 -0 -0 -0 -0 -0 -0 -0 -0 -0 -0 -0 -0 -0 -0 -0 -0 -0 -0 -0 -0 -0
-0 -0 -0 -0 -0 -0 -0 -0 -0 -0 -0 -0 -0 -0 -0 -0 -0 -0 -0 -0 -0 -0 -0 -0 -0 -0 -0 -0 -0 -0 -0 -0 -0 -0 -0 -0 -0 -0 -0 -0 -0 -0 -0
-0 -0 -0 -0 -0 -0 -0 -0 -0 -0 -0 -0 -0 -0 -0 -0 -0 -0 -0 -0 -0 -0 -0 -0 -0 -0 -0 -0 -0 -0 -0 -0 -0 -0 -0 -0 -0 -0 -0 -0 -0 -0 -0
-0 -0 -0 -0 -0 -0 -0 -0 -0 -0 -0 -0 -0 -0 -0 -0 -0 -0 -0 -0 -0 -0 -0 -0 -0 -0 -0 -0 -0 -0 -0 -0 -0 -0 -0 -0 -0 -0 -0 -0 -0 -0 -0
-0 -0 -0 -0 -0 -0 -0 -0 -0 -0 -0 -0 -0 -0 -0 -0 -0 -0 -0 -0 -0 -0 -0 -0 -0 -0 -0 -0 -0 -0 -0 -0 -0 -0 -0 -0 -0 -0 -0 -0 -0 -0 -0
-0 -0 -0 -0 -0 -0 -0 -0 -0 -0 -0 -0 -0 -0 -0 -0 -0 -0 -0 -0 -0 -0 -0 -0 -0 -0 -0 -0 -0 -0 -0 -0 -0 -0 -0 -0 -0 -0 -0 -0 -0 -0 -0
-0 -0 -0 -0 -0 -0 -0 -0 -0 -0 -0 -0 -0 -0 -0 -0 -0 -0 -0 -0 -0 -0 -0 -0 -0 -0 -0 -0 -0 -0 -0 -0 -0 -0 -0 -0 -0 -0 -0 -0 -0 -0 -0
-0 -0 -0 -0 -0 -0 -0 -0 -0 -0 -0 -0 -0 -0 -0 -0 -0 -0 -0 -0 -0 -0 -0 -0 -0 -0 -0 -0 -0 -0 -0 -1 -0 -0 -0 -0 -0 -0 -0 -0 -0 -0 -0
Wind_Speed
8 9 8 9 9 9 11 9 9 8 9 9 9 9 9 8 7 6 6 5 5 5 3 3 1 3 2 2 1 2 2 3 4 4 3 3 3 6 7 7 9 10 10
7 8 9 11 10 6 5 6 8 9 8 7 6 6 8 8 7 6 5 3 5 4 3 2 3 1 4 2 3 4 3 4 4 10 4 5 6 6 6 8 9 9 11
14 14 14 15 15 14 15 14 14 14 13 12 12 11 9 8 7 6 6 5 4 2 3 2 3 2 4 3 4 4 4 5 6 6 10 4 5 4 8 9 10 12 11
16 16 15 13 12 10 10 13 14 13 12 12 11 10 9 8 9 7 8 5 2 1 3 4 5 5 5 5 5 6 6 7 8 8 10 10 7 8 6 11 12 8 11
18 17 15 14 15 14 14 15 14 15 13 12 12 10 7 7 6 6 7 6 7 6 5 5 5 7 11 11 7 8 7 8 8 9 11 10 10 9 10 5 10 11 11
18 17 15 17 15 15 13 16 15 13 10 10 9 9 11 7 15 14 8 4 4 5 6 6 6 9 12 16 17 18 16 11 11 10 11 13 16 11 10 10 11 12 14
18 14 15 17 13 13 13 13 12 11 10 12 10 10 11 10 18 16 13 5 5 5 6 7 8 6 8 9 13 17 15 17 20 16 17 16 18 14 14 15 14 14 16
19 17 13 12 15 13 13 12 11 10 13 12 12 12 12 14 25 22 18 9 8 9 9 9 10 10 10 14 13 12 11 10 11 10 14 16 16 15 15 16 18 18 18
18 16 14 14 15 15 14 13 11 12 13 12 12 13 14 16 27 27 18 11 11 12 10 9 9 12 22 27 17 16 15 14 14 24 27 30 30 30 26 15 14 14 17
15 14 14 15 16 15 14 13 12 12 13 11 15 15 19 15 27 27 20 9 11 9 9 10 18 21 26 26 16 15 16 16 18 19 15 17 20 18 25 17 14 16 15
14 15 16 15 16 14 14 13 14 13 13 13 13 13 14 13 16 26 26 12 10 9 9 10 11 26 26 26 25 14 18 22 20 16 15 14 15 14 12 12 13 14 16
13 15 15 16 12 11 14 13 13 12 12 12 11 10 9 10 21 23 25 24 21 10 11 10 11 24 24 24 18 26 27 22 12 13 13 13 14 13 13 16 20 18 17
15 16 14 14 13 13 14 14 11 12 11 10 10 9 9 9 10 22 23 23 21 11 10 17 21 21 22 15 22 24 17 11 11 12 14 13 13 16 19 18 18 20 12
15 15 14 14 14 13 11 11 10 10 9 9 9 8 7 9 10 10 10 9 14 11 13 9 14 14 15 15 10 12 9 10 11 11 12 13 14 13 14 14 15 15 12
15 14 14 12 12 11 11 10 9 11 13 8 7 7 8 8 11 19 17 11 10 13 9 5 5 8 8 8 8 8 8 9 9 10 12 13 13 14 14 14 14 16 8
13 10 8 7 7 7 7 7 18 17 20 20 17 14 6 15 22 22 22 22 20 21 3 6 8 9 10 10 11 11 11 13 12 13 13 13 14 15 15 15 15 8 8
10 8 7 8 7 7 7 7 7 7 10 17 19 18 21 19 22 23 24 21 19 16 8 9 10 11 12 12 12 13 14 13 16 13 14 15 14 15 17 15 14 12 11
7 10 6 5 5 5 5 4 3 4 8 9 13 16 21 23 24 24 26 18 13 14 10 10 10 11 11 12 12 13 14 15 14 15 15 14 14 14 15 15 12 14 10
7 5 4 3 3 2 2 2 2 2 3 5 8 11 14 24 24 21 21 8 9 10 10 10 10 11 12 12 12 12 13 14 14 14 13 13 14 13 14 12 13 12 6
3 5 1 1 1 4 6 7 8 9 8 8 8 9 12 15 14 14 11 10 9 9 9 9 9 9 10 10 11 11 12 13 13 13 13 13 13 13 12 12 7 6 5
1 4 10 7 8 6 4 6 6 7 8 9 9 9 23 9 9 9 9 9 8 9 9 9 10 10 10 10 10 11 12 13 12 13 12 12 12 10 8 6 6 5 5
6 6 5 3 4 6 7 6 6 6 7 7 9 9 21 7 7 8 8 8 7 8 8 9 9 9 9 10 11 11 12 13 12 11 11 11 9 8 7 6 6 5 6
5 6 6 5 4 5 5 4 5 5 7 8 8 9 8 8 7 8 8 8 7 8 8 8 10 10 9 10 10 11 12 12 12 9 10 9 7 7 6 6 6 5 5
3 3 3 4 4 4 5 7 7 8 8 9 8 8 8 8 8 9 8 7 7 8 8 9 9 12 11 12 10 11 11 12 9 6 8 6 6 6 5 5 5 6 6
3 3 3 5 5 6 7 7 8 8 8 8 8 7 7 8 8 9 8 8 7 8 9 10 9 11 14 18 17 18 19 20 4 5 3 5 5 6 5 4 4 4 5
3 4 4 4 6 6 5 7 8 8 9 8 8 8 8 8 8 9 9 9 8 10 12 9 11 15 17 14 15 19 22 12 5 6 4 3 3 4 4 4 7 3 5
Wind_Direction
185 203 196 200 200 179 183 182 173 146 149 150 155 149 145 135 118 105 115 99 89 90 74 75 76 197 209 233 244 246 241 191 239 284 260 272 256 244 247 229 233 232 238
31 54 42 44 32 31 70 86 92 87 73 78 82 90 107 101 94 104 110 118 126 116 127 204 240 278 250 284 256 255 242 223 227 267 255 265 234 244 244 242 244 236 239
52 57 56 51 56 57 59 52 56 70 73 69 68 60 49 53 56 64 59 66 45 24 296 266 268 313 295 279 260 262 257 261 245 254 270 252 256 247 260 253 248 247 246
60 56 54 56 62 54 67 81 89 79 73 70 67 65 59 46 63 61 51 32 344 344 340 339 336 300 279 274 271 263 268 260 263 263 269 272 262 257 243 269 274 250 254
68 65 59 56 60 55 60 61 58 63 61 57 64 61 61 68 39 50 52 26 8 354 2 342 317 300 298 294 290 279 260 264 268 270 274 279 272 271 260 268 267 277 265
65 68 68 59 58 61 58 61 58 62 63 63 59 63 52 45 45 41 46 36 14 6 352 337 311 290 292 296 293 290 281 279 276 274 279 279 281 283 281 274 275 282 287
59 55 59 67 62 56 61 64 61 62 61 60 53 52 52 40 37 35 29 27 12 355 339 334 339 335 321 313 310 305 294 286 283 286 284 278 285 282 285 282 276 274 272
51 46 40 61 62 57 55 52 54 57 58 56 54 55 57 47 39 40 38 35 32 27 15 4 354 342 343 338 332 323 311 296 284 277 272 276 273 279 273 273 274 272 271
44 44 42 47 56 56 53 51 51 63 67 63 58 52 51 43 33 31 30 24 22 17 5 3 355 352 343 341 335 324 314 308 301 300 294 291 291 288 285 283 275 279 281
44 48 48 49 54 54 54 51 51 56 61 59 53 47 42 36 30 29 30 18 15 6 2 2 356 353 345 342 336 331 326 322 321 317 304 299 295 290 286 272 275 276 278
46 50 49 47 52 50 52 48 51 50 51 49 51 47 40 27 26 27 25 23 15 2 359 353 350 348 350 349 351 344 334 335 330 325 323 322 321 315 306 295 273 255 267
53 53 49 50 48 46 55 52 51 50 48 47 42 42 31 23 23 22 21 22 12 8 359 347 337 351 352 352 352 343 343 338 332 329 325 324 320 318 323 317 307 309 276
53 51 48 49 48 47 51 49 47 43 43 38 34 27 16 15 17 15 11 13 8 5 1 350 350 352 350 348 345 344 345 336 333 328 322 317 325 322 312 309 305 299 288
54 49 46 45 41 38 48 46 48 44 41 42 33 20 4 12 7 4 5 9 357 354 359 336 346 349 351 349 341 342 336 333 327 320 316 313 308 309 310 311 309 306 298
47 41 40 39 37 34 33 39 47 41 41 37 41 21 0 8 4 0 360 2 350 351 351 320 330 349 346 342 338 331 328 328 323 317 313 311 314 315 313 311 305 303 289
52 44 40 45 41 38 30 25 30 43 40 32 34 31 5 2 6 0 0 1 354 2 333 346 349 349 347 341 340 340 341 335 331 326 323 323 321 320 314 314 309 307 306
61 48 41 41 37 32 30 27 18 358 19 22 15 19 10 359 3 2 2 2 357 7 7 360 353 350 342 344 342 338 332 331 328 327 322 322 321 317 319 314 310 323 308
44 46 45 33 27 25 21 10 352 2 349 343 356 2 1 356 359 2 3 359 358 8 5 350 341 338 335 335 333 330 325 326 327 322 320 317 314 311 312 311 320 316 302
44 32 18 8 353 3 349 337 314 298 332 334 336 352 353 349 355 0 4 9 346 345 343 338 332 329 329 328 324 318 314 311 310 312 312 311 312 311 307 320 311 317 334
15 35 31 287 344 22 20 15 6 3 357 352 346 341 332 350 356 349 347 341 335 328 326 319 317 313 311 311 312 310 307 309 311 311 313 312 310 310 313 316 326 333 344
157 34 24 23 20 12 358 359 350 347 345 337 325 326 334 351 324 318 317 316 311 310 311 312 311 310 310 310 308 306 305 305 307 311 318 318 315 322 330 334 339 346 350
28 19 12 8 342 355 350 345 339 328 312 306 306 309 319 315 301 297 297 296 294 294 295 298 300 302 305 302 302 304 303 306 309 314 319 318 325 329 332 338 344 352 355
21 8 359 347 343 324 322 301 300 294 293 288 288 293 296 293 289 286 290 294 294 294 295 297 299 303 301 299 302 298 301 303 309 313 314 321 329 334 340 346 356 351 342
9 346 325 310 316 310 301 301 296 281 278 286 289 286 285 286 286 291 292 294 296 296 297 296 299 296 297 303 302 302 298 302 308 319 328 328 332 340 347 351 352 325 328
337 325 321 306 303 297 299 296 289 286 282 282 284 282 287 291 296 299 302 301 300 303 300 303 299 298 302 305 303 304 305 316 326 342 327 339 351 355 352 348 323 316 344
311 298 286 287 286 279 274 284 288 290 292 294 299 301 299 301 301 304 308 309 307 309 306 302 303 303 306 306 306 310 316 335 38 13 354 1 357 352 4 347 345 338 339